[[{"header":{"parameterUnit":"m.s-1","parameterCategory":1,"la1":30.2991,"la2":30.254,"lo1":-89.0895,"lo2":-89.0444,"dy":0.0017,"dx":0.0017,"nx":28,"ny":28,"refTime":"2025-05-18T03:00:00:Z","depth":0,"parameterNumber":2,"parameterNumberName":"U-component_of_WINDS"},"data":[0,0,0,0,0,0,0,0,0,0,0,0,0,0,0,0,0,0,0,0,0,0,0,0,0,0,0,0,0,0,0,0,0,0,0,0,0,0,0,0,0,0,0,0,0,0,0,0,0,0,0,0,0,0,0,0,0,0,-2.033,-2.033,0,-2.0379,-2.0379,-2.038,-2.0376,-2.0375,-2.0374,-2.0373,-2.0425,-2.0427,-2.0429,0,0,0,0,0,0,0,0,0,0,0,0,0,-2.0236,-2.0237,-2.033,-2.033,-2.0331,-2.0379,-2.0379,-2.038,-2.0376,-2.0375,-2.0374,-2.0373,-2.0424,-2.0426,-2.0429,0,0,0,0,0,0,0,0,0,0,0,0,0,-2.028,-2.0238,-2.033,-2.0335,-2.0336,-2.0378,-2.0379,-2.038,-2.0376,-2.0375,-2.0374,-2.0373,-2.0423,-2.0426,-2.0429,-2.0471,0,0,-2.0439,-2.044,0,0,0,0,0,0,0,0,-2.0277,-2.0283,-2.0333,-2.0334,-2.0335,-2.037,-2.0365,-2.0411,-2.0376,-2.0361,-2.0373,-2.0372,-2.0407,-2.0412,-2.0423,-2.0473,-2.0475,-2.0439,-2.0441,-2.0442,-2.0443,0,0,0,0,0,0,0,-2.0274,-2.0281,-2.0349,-2.0334,-2.0335,-2.0335,-2.034,-2.0374,-2.039,-2.0362,-2.0362,-2.0367,-2.0408,-2.042,-2.0425,-2.0476,-2.0439,-2.0442,-2.0443,-2.0445,-2.0564,-2.0565,0,0,0,0,0,0,-2.027,-2.0279,-2.0348,-2.0351,-2.0303,-2.0338,-2.0344,-2.036,-2.0389,-2.0393,-2.0368,-2.0367,-2.0416,-2.0421,-2.0426,-2.0478,-2.0442,-2.0445,-2.0447,-2.0563,-2.0564,-2.0566,0,0,0,0,0,0,-2.0268,-2.0276,-2.0346,-2.0315,-2.0323,-2.0341,-2.0359,-2.0362,-2.0374,-2.0394,-2.0397,-2.0378,-2.0415,-2.0422,-2.046,-2.0479,-2.0446,-2.0449,-2.0561,-2.0563,-2.0565,-2.058,0,0,0,0,0,0,-2.0265,-2.0275,-2.029,-2.0315,-2.0325,-2.0378,-2.036,-2.0363,-2.0379,-2.0378,-2.0404,-2.0407,-2.0415,-2.0455,-2.0463,-2.0483,-2.0452,-2.056,-2.0562,-2.0565,-2.0578,-2.0582,-2.0586,0,0,0,0,0,-2.0262,-2.0293,-2.0291,-2.0299,-2.0344,-2.0379,-2.0385,-2.0392,-2.0381,-2.0397,-2.041,-2.0407,-2.0476,-2.0459,-2.0468,-2.0489,-2.0558,-2.0562,-2.0564,-2.0576,-2.0581,-2.0586,0,0,0,0,0,0,-2.027,-2.0296,-2.0294,-2.0334,-2.0354,-2.0378,-2.0398,-2.0397,-2.0421,-2.0419,-2.0428,-2.0434,-2.0472,-2.0485,-2.0465,-2.0532,-2.0516,-2.0521,-2.0522,-2.0527,-2.0531,-2.0527,-2.0454,0,0,0,0,0,-2.0276,-2.0301,-2.0323,-2.0356,-2.0366,-2.0381,-2.0396,-2.04,-2.0421,-2.043,-2.0446,-2.0467,-2.0494,-2.0511,-2.0537,-2.058,-2.0586,-2.0599,-2.0603,-2.0606,-2.061,-2.0635,-2.0641,-2.0576,-2.0576,-2.0576,0,0,-2.029,-2.0307,-2.0322,-2.0358,-2.0374,-2.0401,-2.0388,-2.0416,-2.0436,-2.0434,-2.0471,-2.0484,-2.0509,-2.0549,-2.0568,-2.0561,-2.063,-2.061,-2.0613,-2.0615,-2.0639,-2.0645,-2.065,-2.0578,-2.0577,-2.0577,0,0,-2.0328,-2.0343,-2.0373,-2.0389,-2.0414,-2.0424,-2.0431,-2.0455,-2.0464,-2.0501,-2.05,-2.0525,-2.057,-2.0588,-2.0603,-2.0651,-2.0648,-2.0659,-2.068,-2.0704,-2.0709,-2.0713,-2.073,-2.0736,-2.0663,-2.0663,-2.0663,0,-2.0342,-2.0381,-2.0388,-2.0417,-2.0433,-2.0433,-2.0464,-2.048,-2.0512,-2.0523,-2.0515,-2.0573,-2.059,-2.0635,-2.0647,-2.0659,-2.0668,-2.0655,-2.0707,-2.0712,-2.0717,-2.0733,-2.0739,-2.0664,-2.0664,-2.0664,-2.0664,0,-2.0397,-2.0424,-2.0445,-2.0476,-2.0495,-2.0525,-2.0537,-2.0556,-2.0559,-2.057,-2.0609,-2.0629,-2.0659,-2.067,-2.0673,-2.0717,-2.0712,-2.0705,-2.069,-2.0724,-2.0739,-2.0746,-2.0665,-2.0665,-2.0665,-2.0664,0,0,-2.044,-2.0475,-2.0483,-2.0497,-2.0525,-2.0547,-2.0578,-2.0607,-2.0623,-2.0646,-2.0672,-2.0712,-2.0706,-2.0724,-2.0729,-2.075,-2.0787,-2.0741,-2.0742,-2.0749,-2.0837,-2.0841,-2.0848,-2.0786,-2.0788,-2.0789,-2.0835,0,-2.0481,-2.0534,-2.0542,-2.0589,-2.0615,-2.0616,-2.0643,-2.0664,-2.0675,-2.07,-2.0713,-2.0741,-2.0732,-2.0742,-2.0763,-2.0778,-2.0805,-2.0775,-2.0811,-2.0812,-2.0804,-2.0856,-2.0861,-2.0903,-2.0841,-2.0842,-2.0843,0,-2.0535,-2.0559,-2.0609,-2.0634,-2.0645,-2.0669,-2.0697,-2.0721,-2.0745,-2.0752,-2.0772,-2.0775,-2.0808,-2.0792,-2.0838,-2.0817,-2.0833,-2.0843,-2.0845,-2.0848,-2.0829,-2.0861,-2.0917,-2.0923,-2.0852,-2.0851,-2.0851,0,-2.0562,-2.0607,-2.0642,-2.0655,-2.0685,-2.0702,-2.0716,-2.0739,-2.0756,-2.0782,-2.0793,-2.0822,-2.0838,-2.0861,-2.0873,-2.086,-2.0918,-2.0902,-2.0925,-2.0925,-2.0937,-2.0936,-2.0996,-2.0948,-2.0948,-2.0947,-2.0947,0,-2.0607,-2.0637,-2.0655,-2.0677,-2.0711,-2.0721,-2.0755,-2.0769,-2.079,-2.0815,-2.0818,-2.0842,-2.0856,-2.0882,-2.0892,-2.0929,-2.0936,-2.0943,-2.0945,-2.0943,-2.0942,-2.0952,-2.095,-2.0949,-2.0949,-2.0948,-2.0948,0,-2.0642,-2.0655,-2.0694,-2.072,-2.0727,-2.0752,-2.0774,-2.0796,-2.0808,-2.084,-2.0849,-2.0868,-2.0899,-2.0913,-2.0952,-2.0958,-2.1,-2.1001,-2.0992,-2.0993,-2.1015,-2.1012,-2.1083,-2.1094,-2.1039,-2.1039,-2.104,0,-2.0669,-2.0692,-2.0721,-2.0738,-2.0752,-2.0779,-2.0797,-2.0809,-2.0828,-2.0858,-2.0876,-2.0908,-2.0933,-2.0984,-2.1001,-2.1031,-2.1032,-2.1055,-2.1037,-2.1034,-2.1033,-2.1031,-2.1034,-2.1058,-2.1059,-2.1059,-2.106,0,-2.0716,-2.0722,-2.0747,-2.0776,-2.0797,-2.082,-2.0843,-2.0857,-2.0872,-2.0893,-2.0925,-2.0945,-2.0985,-2.1016,-2.1048,-2.1063,-2.1064,-2.1065,-2.1072,-2.1069,-2.1064,-2.1067,-2.1001,-2.1063,-2.1063,-2.1063,-2.1063,-2.1062,-2.0749,-2.077,-2.0793,-2.0822,-2.084,-2.0861,-2.0883,-2.0898,-2.0925,-2.0958,-2.0964,-2.0998,-2.1023,-2.1065,-2.1082,-2.1109,-2.1104,-2.1114,-2.1116,-2.1118,-2.1119,-2.106,-2.1115,-2.1115,-2.1115,-2.1115,-2.1115,0,-2.0796,-2.0811,-2.0838,-2.0869,-2.0892,-2.0891,-2.0917,-2.0936,-2.0966,-2.0989,-2.1014,-2.1051,-2.1082,-2.1103,-2.1135,-2.1153,-2.1154,-2.1161,-2.1159,-2.1163,-2.1122,-2.1113,-2.1159,-2.1159,-2.1159,-2.1159,-2.1159,-2.1159,-2.0823,-2.0859,-2.0868,-2.0913,-2.0929,-2.0962,-2.0976,-2.0996,-2.1015,-2.1056,-2.1082,-2.1095,-2.1118,-2.1151,-2.118,-2.1185,-2.1197,-2.1203,-2.1208,-2.117,-2.1165,-2.1161,-2.1152,-2.1206,-2.1206,-2.1246,-2.1247,-2.1247]},{"header":{"parameterUnit":"m.s-1","parameterCategory":1,"la1":30.2991,"la2":30.254,"lo1":-89.0895,"lo2":-89.0444,"dy":0.0017,"dx":0.0017,"nx":28,"ny":28,"refTime":"2025-05-18T03:00:00:Z","depth":0,"parameterNumber":3,"parameterNumberName":"V-component_of_WINDS"},"data":[0,0,0,0,0,0,0,0,0,0,0,0,0,0,0,0,0,0,0,0,0,0,0,0,0,0,0,0,0,0,0,0,0,0,0,0,0,0,0,0,0,0,0,0,0,0,0,0,0,0,0,0,0,0,0,0,0,0,4.6052,4.6052,0,4.6108,4.6108,4.6109,4.6093,4.6092,4.6091,4.6089,4.6142,4.6144,4.6147,0,0,0,0,0,0,0,0,0,0,0,0,0,4.5927,4.5929,4.6052,4.6052,4.6053,4.6108,4.6108,4.6109,4.6093,4.6092,4.609,4.6089,4.6141,4.6144,4.6147,0,0,0,0,0,0,0,0,0,0,0,0,0,4.5982,4.593,4.6052,4.6052,4.6052,4.6108,4.6108,4.6109,4.6093,4.6092,4.609,4.6088,4.614,4.6144,4.6147,4.6204,0,0,4.6159,4.616,0,0,0,0,0,0,0,0,4.5979,4.5986,4.6051,4.6052,4.6053,4.6092,4.6084,4.6141,4.6094,4.6078,4.6089,4.6087,4.6126,4.6131,4.6145,4.6207,4.6209,4.6159,4.6161,4.6163,4.6164,0,0,0,0,0,0,0,4.5975,4.5984,4.6074,4.6052,4.6053,4.6048,4.6054,4.6095,4.6111,4.6079,4.6078,4.6085,4.6126,4.6142,4.6146,4.621,4.6159,4.6162,4.6164,4.6166,4.6323,4.6324,0,0,0,0,0,0,4.5971,4.5981,4.6072,4.6075,4.6011,4.6051,4.6058,4.6081,4.611,4.6113,4.6086,4.6084,4.6136,4.6142,4.6148,4.6218,4.6163,4.6166,4.6168,4.6321,4.6323,4.6325,0,0,0,0,0,0,4.5969,4.598,4.607,4.6028,4.6039,4.6056,4.6081,4.6083,4.6098,4.6116,4.6118,4.6099,4.6135,4.6143,4.6191,4.6219,4.6168,4.6171,4.6318,4.6321,4.6324,4.6357,0,0,0,0,0,0,4.5965,4.5979,4.6001,4.6029,4.6041,4.6113,4.6083,4.6085,4.6105,4.6102,4.6129,4.6131,4.6134,4.6186,4.6195,4.6223,4.6174,4.6316,4.632,4.6323,4.6354,4.6361,4.6367,0,0,0,0,0,4.5961,4.6007,4.6002,4.6013,4.607,4.6115,4.6122,4.6126,4.6107,4.613,4.6142,4.613,4.6215,4.6191,4.6201,4.6231,4.6314,4.6319,4.6323,4.6351,4.6359,4.6367,0,0,0,0,0,0,4.598,4.601,4.6006,4.6062,4.6086,4.6112,4.614,4.6135,4.6163,4.6159,4.6161,4.6167,4.6217,4.6229,4.6202,4.6289,4.6262,4.6268,4.6279,4.6288,4.6294,4.6291,4.6177,0,0,0,0,0,4.5991,4.6026,4.605,4.6098,4.611,4.6123,4.6143,4.6144,4.6168,4.6178,4.6193,4.6216,4.6247,4.6268,4.6298,4.6355,4.6361,4.6381,4.6388,4.6393,4.6399,4.6431,4.6441,4.634,4.6339,4.6339,0,0,4.6014,4.6035,4.6056,4.6102,4.6121,4.6156,4.6132,4.617,4.6196,4.6183,4.623,4.6243,4.6268,4.6322,4.6346,4.6333,4.6428,4.6399,4.6403,4.6406,4.6437,4.6446,4.6455,4.6343,4.6342,4.6341,0,0,4.6073,4.6093,4.6136,4.6156,4.6185,4.6194,4.6204,4.6231,4.6239,4.6288,4.6279,4.6309,4.6364,4.6383,4.64,4.6469,4.646,4.6479,4.6514,4.6545,4.6553,4.656,4.6586,4.6595,4.6484,4.6484,4.6484,0,4.6097,4.6152,4.6157,4.6198,4.6218,4.621,4.6253,4.6272,4.6309,4.6323,4.6308,4.6378,4.6394,4.6453,4.647,4.6483,4.6495,4.6475,4.6552,4.6559,4.6565,4.659,4.6599,4.6486,4.6486,4.6486,4.6486,0,4.6181,4.6219,4.6249,4.6288,4.6312,4.6353,4.6364,4.6387,4.6387,4.6397,4.6447,4.6466,4.6501,4.6515,4.6514,4.6574,4.6565,4.6551,4.6524,4.6577,4.66,4.6609,4.6489,4.6489,4.6488,4.6487,0,0,4.6253,4.6296,4.6307,4.6326,4.6359,4.6388,4.6428,4.6464,4.6485,4.6511,4.6545,4.6592,4.658,4.6599,4.66,4.6628,4.6683,4.6611,4.6611,4.6624,4.6751,4.6762,4.6773,4.6678,4.6679,4.6681,4.675,0,4.6316,4.639,4.6397,4.6463,4.6499,4.6493,4.6528,4.6552,4.6563,4.6593,4.6604,4.6639,4.662,4.6631,4.6658,4.6671,4.6709,4.6666,4.6709,4.671,4.6703,4.6785,4.6796,4.686,4.6759,4.676,4.6761,0,4.64,4.6432,4.6502,4.6532,4.6547,4.6579,4.6613,4.6643,4.667,4.6675,4.6698,4.6696,4.6737,4.6709,4.6766,4.6737,4.6755,4.6764,4.6767,4.6771,4.6739,4.6792,4.688,4.689,4.6775,4.6774,4.6773,0,4.6447,4.6507,4.6557,4.6573,4.6608,4.6631,4.6647,4.6672,4.6694,4.6723,4.6738,4.6771,4.6789,4.6814,4.6821,4.68,4.6878,4.685,4.6884,4.6884,4.6901,4.69,4.6994,4.6912,4.6912,4.6912,4.6911,0,4.6518,4.6561,4.6579,4.661,4.6658,4.6665,4.6713,4.6727,4.675,4.6783,4.6778,4.6809,4.6816,4.6848,4.6853,4.69,4.6908,4.6913,4.6914,4.6914,4.6914,4.6926,4.6922,4.6914,4.6914,4.6913,4.6913,0,4.6578,4.6592,4.6647,4.6677,4.6686,4.672,4.6745,4.6775,4.6786,4.6827,4.6838,4.6854,4.6892,4.6901,4.6945,4.6949,4.7004,4.7001,4.6996,4.6996,4.703,4.7027,4.7135,4.715,4.7058,4.7059,4.706,0,4.6623,4.6656,4.6691,4.6714,4.6732,4.6768,4.6791,4.6799,4.6823,4.6857,4.6882,4.692,4.695,4.701,4.7025,4.7059,4.7057,4.7093,4.7062,4.7061,4.7058,4.7056,4.706,4.7098,4.7099,4.71,4.7101,0,4.67,4.6706,4.674,4.6778,4.6806,4.6835,4.6863,4.6881,4.6894,4.692,4.696,4.6984,4.703,4.7067,4.7102,4.7117,4.7111,4.7111,4.7121,4.7121,4.7117,4.7121,4.7013,4.7108,4.7107,4.7107,4.7106,4.7106,4.6755,4.6785,4.6815,4.6854,4.6876,4.6903,4.6933,4.6948,4.6982,4.7022,4.7024,4.7067,4.7094,4.714,4.7157,4.719,4.7179,4.7193,4.7196,4.72,4.7203,4.7112,4.7196,4.7196,4.7196,4.7196,4.7195,0,4.6833,4.6853,4.6888,4.6929,4.6959,4.6953,4.6984,4.701,4.7048,4.7074,4.7105,4.7151,4.7188,4.7206,4.7243,4.7266,4.7264,4.7275,4.7273,4.7277,4.7211,4.7199,4.7276,4.7276,4.7276,4.7276,4.7276,4.7276,4.6877,4.6929,4.6939,4.7001,4.702,4.7064,4.7082,4.7106,4.7127,4.718,4.7211,4.7223,4.7247,4.7285,4.7318,4.7322,4.7336,4.7349,4.7352,4.729,4.7281,4.7274,4.7263,4.7351,4.7351,4.7415,4.7416,4.7416]}]]